Tracking 19570 objects as of 22-Feb-2019
HD Live streaming from Space Station
objects crossing your sky now

COSMOS 509

Track COSMOS 509 now!
10-day predictions
COSMOS 509 is classified as:


NORAD ID: 6122
Int'l Code: 1972-057F
Perigee: 1,480.4 km
Apogee: 1,505.2 km
Inclination: 74.0 °
Period: 115.7 minutes
Semi major axis: 7863 km
RCS: 0.7159 m2 (medium)
Launch date: July 20, 1972
Source: Commonwealth of Independent States (former USSR) (CIS)
Launch site: PLESETSK MISSILE AND SPACE COMPLEX (PKMTR)
aabbcc
Your satellite tracking list
Your tracking list is empty




NASA's NSSDC Master Catalog

Two Line Element Set (TLE):
1  6122U 72057F   19051.72274840 +.00000000 +00000-0 +11006-3 0  9993
2  6122 074.0281 141.6245 0015751 355.5279 118.6799 12.44955777117262
Source of the keplerian elements: AFSPC